{"data":{"norad_id":64116,"epoch":"2026-05-25T00:08:06.451008Z","epoch_age_seconds":78027,"freshness":"FRESH","line1":"1 64116U 25110W   26145.00563022  .00014601  00000+0  48110-3 0  9991","line2":"2 64116  53.1601  31.7964 0001039  97.7251 262.3868 15.31716244 57562","mean_motion":15.31716244,"eccentricity":0.0001039,"inclination_deg":53.1601,"raan_deg":31.7964,"arg_perigee_deg":97.7251,"mean_anomaly_deg":262.3868,"bstar":0.0004811,"rev_number":5756,"period_min":94.012190942071,"perigee_km":469.97997984611,"apogee_km":471.4031664236,"semimajor_km":6848.8285731349,"source":"CELESTRAK","updated_at":"2026-05-25T13:38:20.268390Z"}}